When you browse on this site, cookies collect data to enhance your experience and personalize the content and advertising you see.
Visit our Privacy Policy to learn more. By continuing to use the site, you agree to this use of cookies and data.
  • In Österreich
  • Länderverzeichnis
  • Für 7 Tage
  • Wassertemperatur
  • Satellitenkarten
  • Wetterkarte
  • News
  • Widgets
  • user-avatar
    Anmelden

    Stündliche Wetter Tallahassee

    Heute, 21 Februar, Donnerstag

    Zeit Temperatur Niederschläge Wind Luftdruck Luftfeuchtigkeit
    00:00 +20°C° 0 mm 2 m/S 760 mmHg 98%
    01:00 +20°C° 0 mm 2 m/S 760 mmHg 98%
    02:00 +20°C° 0 mm 2 m/S 759 mmHg 98%
    03:00 +20°C° 0 mm 2 m/S 759 mmHg 98%
    04:00 +20°C° 0 mm 2 m/S 759 mmHg 98%
    05:00 +19°C° 0 mm 2 m/S 760 mmHg 98%
    06:00 +20°C° 0 mm 1 m/S 760 mmHg 98%
    07:00 +21°C° 0 mm 2 m/S 760 mmHg 91%
    08:00 +24°C° 0 mm 2 m/S 761 mmHg 84%
    09:00 +26°C° 0 mm 3 m/S 761 mmHg 77%
    10:00 +27°C° 0 mm 3 m/S 761 mmHg 70%
    11:00 +28°C° 0 mm 4 m/S 761 mmHg 63%
    12:00 +30°C° 0 mm 4 m/S 761 mmHg 56%
    13:00 +29°C° 0 mm 4 m/S 760 mmHg 57%
    14:00 +29°C° 0 mm 4 m/S 760 mmHg 58%
    15:00 +28°C° 0 mm 4 m/S 760 mmHg 59%
    16:00 +26°C° 0 mm 3 m/S 760 mmHg 68%
    17:00 +25°C° 0 mm 2 m/S 760 mmHg 77%
    18:00 +23°C° 0 mm 2 m/S 760 mmHg 86%
    19:00 +22°C° 0 mm 1 m/S 761 mmHg 90%
    20:00 +21°C° 0 mm 1 m/S 761 mmHg 93%
    21:00 +21°C° 0 mm 1 m/S 761 mmHg 97%
    22:00 +21°C° 0 mm 1 m/S 761 mmHg 97%
    23:00 +21°C° 0 mm 1 m/S 761 mmHg 98%

    Morgen, 22 Februar, Freitag

    Zeit Temperatur Niederschläge Wind Luftdruck Luftfeuchtigkeit
    00:00 +21°C° 0 mm 1 m/S 762 mmHg 98%
    01:00 +20°C° 0 mm 1 m/S 761 mmHg 98%
    02:00 +20°C° 0 mm 1 m/S 761 mmHg 98%
    03:00 +20°C° 0 mm 1 m/S 761 mmHg 98%
    04:00 +20°C° 0 mm 1 m/S 761 mmHg 98%
    05:00 +20°C° 0 mm 1 m/S 762 mmHg 98%
    06:00 +20°C° 0 mm 1 m/S 762 mmHg 98%
    07:00 +22°C° 0 mm 1 m/S 762 mmHg 89%
    08:00 +24°C° 0 mm 1 m/S 763 mmHg 81%
    09:00 +26°C° 0 mm 2 m/S 763 mmHg 73%
    10:00 +27°C° 0 mm 2 m/S 763 mmHg 68%
    11:00 +29°C° 0 mm 3 m/S 763 mmHg 63%
    12:00 +30°C° 0 mm 3 m/S 763 mmHg 58%
    13:00 +30°C° 0 mm 3 m/S 762 mmHg 58%
    14:00 +30°C° 0 mm 3 m/S 762 mmHg 58%
    15:00 +30°C° 0 mm 3 m/S 761 mmHg 59%
    16:00 +28°C° 0.1 mm 3 m/S 761 mmHg 66%
    17:00 +26°C° 0.1 mm 2 m/S 762 mmHg 74%
    18:00 +24°C° 0.1 mm 1 m/S 762 mmHg 82%
    19:00 +23°C° 0 mm 1 m/S 762 mmHg 84%
    20:00 +22°C° 0 mm 1 m/S 762 mmHg 86%
    21:00 +22°C° 0 mm 1 m/S 763 mmHg 88%
    22:00 +21°C° 0 mm 1 m/S 763 mmHg 87%
    23:00 +21°C° 0 mm 1 m/S 762 mmHg 87%

    übermorgen, 23 Februar, Samstag

    Zeit Temperatur Niederschläge Wind Luftdruck Luftfeuchtigkeit
    00:00 +21°C° 0 mm 1 m/S 762 mmHg 86%
    01:00 +21°C° 0 mm 1 m/S 762 mmHg 87%
    02:00 +20°C° 0 mm 1 m/S 762 mmHg 89%
    03:00 +20°C° 0 mm 1 m/S 761 mmHg 90%
    04:00 +20°C° 0 mm 1 m/S 761 mmHg 91%
    05:00 +20°C° 0 mm 1 m/S 762 mmHg 92%
    06:00 +19°C° 0 mm 1 m/S 762 mmHg 93%
    07:00 +22°C° 0 mm 1 m/S 762 mmHg 85%
    08:00 +24°C° 0 mm 2 m/S 762 mmHg 76%
    09:00 +26°C° 0 mm 2 m/S 762 mmHg 67%
    10:00 +27°C° 0 mm 3 m/S 762 mmHg 63%
    11:00 +29°C° 0 mm 4 m/S 761 mmHg 58%
    12:00 +30°C° 0 mm 4 m/S 761 mmHg 53%
    13:00 +30°C° 0 mm 4 m/S 760 mmHg 53%
    14:00 +30°C° 0 mm 4 m/S 760 mmHg 54%
    15:00 +29°C° 0 mm 4 m/S 759 mmHg 55%
    16:00 +27°C° 0 mm 4 m/S 759 mmHg 64%
    17:00 +26°C° 0 mm 3 m/S 759 mmHg 73%
    18:00 +24°C° 0 mm 2 m/S 759 mmHg 82%
    19:00 +23°C° 0 mm 2 m/S 760 mmHg 86%
    20:00 +23°C° 0 mm 2 m/S 760 mmHg 90%
    21:00 +21°C° 0 mm 2 m/S 760 mmHg 93%
    22:00 +21°C° 0 mm 2 m/S 760 mmHg 95%
    23:00 +21°C° 0 mm 2 m/S 760 mmHg 96%

    24 Februar, Sonntag

    Zeit Temperatur Niederschläge Wind Luftdruck Luftfeuchtigkeit
    00:00 +21°C° 0 mm 2 m/S 760 mmHg 98%
    01:00 +21°C° 0 mm 2 m/S 759 mmHg 96%
    02:00 +21°C° 0 mm 3 m/S 759 mmHg 95%
    03:00 +22°C° 0 mm 3 m/S 758 mmHg 94%
    04:00 +22°C° 0 mm 3 m/S 759 mmHg 94%
    05:00 +22°C° 0 mm 3 m/S 759 mmHg 94%
    06:00 +22°C° 0 mm 3 m/S 759 mmHg 94%
    07:00 +24°C° 0.1 mm 3 m/S 759 mmHg 89%
    08:00 +25°C° 0.1 mm 3 m/S 760 mmHg 83%
    09:00 +26°C° 0.1 mm 4 m/S 760 mmHg 78%
    10:00 +24°C° 0.5 mm 3 m/S 760 mmHg 75%
    11:00 +21°C° 0.5 mm 3 m/S 760 mmHg 71%
    12:00 +19°C° 0.5 mm 3 m/S 760 mmHg 68%
    13:00 +19°C° 0.6 mm 2 m/S 760 mmHg 70%
    14:00 +19°C° 0.6 mm 1 m/S 760 mmHg 73%
    15:00 +19°C° 0.6 mm 1 m/S 760 mmHg 75%
    16:00 +18°C° 0 mm 1 m/S 760 mmHg 76%
    17:00 +18°C° 0 mm 1 m/S 760 mmHg 76%
    18:00 +18°C° 0 mm 1 m/S 761 mmHg 77%
    19:00 +16°C° 0 mm 1 m/S 761 mmHg 77%
    20:00 +16°C° 0 mm 1 m/S 762 mmHg 77%
    21:00 +15°C° 0 mm 2 m/S 762 mmHg 77%
    22:00 +15°C° 0 mm 2 m/S 762 mmHg 77%
    23:00 +14°C° 0 mm 2 m/S 762 mmHg 76%

    25 Februar, Montag

    Zeit Temperatur Niederschläge Wind Luftdruck Luftfeuchtigkeit
    00:00 +12°C° 0 mm 3 m/S 763 mmHg 76%
    01:00 +12°C° 0 mm 3 m/S 763 mmHg 75%
    02:00 +11°C° 0 mm 3 m/S 763 mmHg 74%
    03:00 +10°C° 0 mm 3 m/S 763 mmHg 73%
    04:00 +10°C° 0 mm 3 m/S 763 mmHg 72%
    05:00 +9°C° 0 mm 2 m/S 764 mmHg 71%
    06:00 +9°C° 0 mm 2 m/S 764 mmHg 69%
    07:00 +10°C° 0 mm 3 m/S 765 mmHg 61%
    08:00 +12°C° 0 mm 3 m/S 766 mmHg 52%
    09:00 +13°C° 0 mm 3 m/S 766 mmHg 43%
    10:00 +16°C° 0 mm 3 m/S 766 mmHg 42%
    11:00 +18°C° 0 mm 3 m/S 765 mmHg 40%
    12:00 +20°C° 0 mm 3 m/S 765 mmHg 39%
    13:00 +20°C° 0 mm 3 m/S 765 mmHg 38%
    14:00 +21°C° 0 mm 3 m/S 765 mmHg 37%
    15:00 +21°C° 0 mm 3 m/S 764 mmHg 36%
    16:00 +20°C° 0 mm 3 m/S 764 mmHg 41%
    17:00 +19°C° 0 mm 2 m/S 765 mmHg 45%
    18:00 +17°C° 0 mm 2 m/S 765 mmHg 50%
    19:00 +17°C° 0 mm 2 m/S 765 mmHg 51%
    20:00 +16°C° 0 mm 3 m/S 766 mmHg 52%
    21:00 +16°C° 0 mm 3 m/S 766 mmHg 54%
    22:00 +14°C° 0 mm 3 m/S 766 mmHg 57%
    23:00 +14°C° 0 mm 3 m/S 766 mmHg 61%

    26 Februar, Dienstag

    Zeit Temperatur Niederschläge Wind Luftdruck Luftfeuchtigkeit
    00:00 +13°C° 0 mm 3 m/S 765 mmHg 64%
    01:00 +13°C° 0 mm 3 m/S 765 mmHg 66%
    02:00 +13°C° 0 mm 3 m/S 765 mmHg 68%
    03:00 +14°C° 0 mm 2 m/S 765 mmHg 70%
    04:00 +14°C° 0 mm 2 m/S 765 mmHg 73%
    05:00 +13°C° 0 mm 3 m/S 765 mmHg 75%
    06:00 +13°C° 0 mm 3 m/S 765 mmHg 77%
    07:00 +14°C° 0 mm 3 m/S 766 mmHg 75%
    08:00 +17°C° 0 mm 3 m/S 766 mmHg 72%
    09:00 +19°C° 0 mm 4 m/S 767 mmHg 70%
    10:00 +18°C° 0.8 mm 3 m/S 766 mmHg 75%
    11:00 +18°C° 0.8 mm 3 m/S 766 mmHg 81%
    12:00 +18°C° 0.8 mm 2 m/S 766 mmHg 87%
    13:00 +18°C° 1.6 mm 2 m/S 765 mmHg 88%
    14:00 +18°C° 1.6 mm 2 m/S 765 mmHg 90%
    15:00 +17°C° 1.6 mm 3 m/S 764 mmHg 92%
    16:00 +17°C° 0.3 mm 3 m/S 764 mmHg 93%
    17:00 +17°C° 0.3 mm 2 m/S 764 mmHg 94%
    18:00 +17°C° 0.3 mm 2 m/S 764 mmHg 94%
    19:00 +17°C° 0.1 mm 2 m/S 764 mmHg 95%
    20:00 +17°C° 0.1 mm 2 m/S 764 mmHg 95%
    21:00 +17°C° 0.1 mm 2 m/S 764 mmHg 95%
    22:00 +17°C° 0.3 mm 2 m/S 764 mmHg 96%
    23:00 +18°C° 0.3 mm 2 m/S 764 mmHg 97%
    Mehr zeigen